owner,sensor,date,latitude,longitude,vertical_datum,wind_speed,wind_to_direction,wind_speed_of_gust,qcFlag 
NDBC,ioos:station:NOAA.NDBC:BURL1:1,2016-03-02T21:00:00Z,28.9060,-89.4290,30.5,5.7,-9999.0,5.7,'1111122,1111122,1111122' 
NDBC,ioos:station:NOAA.NDBC:BURL1:1,2016-03-02T22:00:00Z,28.9060,-89.4290,30.5,7.2,-9999.0,7.2,'1111122,1111122,1111122' 
NDBC,ioos:station:NOAA.NDBC:BURL1:1,2016-03-02T23:00:00Z,28.9060,-89.4290,30.5,7.2,-9999.0,7.2,'1111122,1111122,1111122' 
NDBC,ioos:station:NOAA.NDBC:BURL1:1,2016-03-03T00:00:00Z,28.9060,-89.4290,30.5,5.7,-9999.0,5.7,'1111122,1111122,1111122' 
NDBC,ioos:station:NOAA.NDBC:BURL1:1,2016-03-03T01:00:00Z,28.9060,-89.4290,30.5,3.6,-9999.0,4.1,'1111122,1111122,1111122' 
NDBC,ioos:station:NOAA.NDBC:BURL1:1,2016-03-03T02:00:00Z,28.9060,-89.4290,30.5,4.6,-9999.0,5.1,'1111122,1111122,1111122' 
NDBC,ioos:station:NOAA.NDBC:BURL1:1,2016-03-03T03:00:00Z,28.9060,-89.4290,30.5,6.7,-9999.0,6.7,'1111122,1111122,1111122' 
NDBC,ioos:station:NOAA.NDBC:BURL1:1,2016-03-03T04:00:00Z,28.9060,-89.4290,30.5,6.7,-9999.0,7.2,'1111122,1111122,1111122' 
NDBC,ioos:station:NOAA.NDBC:BURL1:1,2016-03-03T05:00:00Z,28.9060,-89.4290,30.5,7.2,-9999.0,7.7,'1111122,1111122,1111122' 
NDBC,ioos:station:NOAA.NDBC:BURL1:1,2016-03-03T06:00:00Z,28.9060,-89.4290,30.5,6.2,-9999.0,6.7,'1111122,1111122,1111122' 
NDBC,ioos:station:NOAA.NDBC:BURL1:1,2016-03-03T07:00:00Z,28.9060,-89.4290,30.5,7.7,-9999.0,8.2,'1111122,1111122,1111122' 
NDBC,ioos:station:NOAA.NDBC:BURL1:1,2016-03-03T08:00:00Z,28.9060,-89.4290,30.5,7.7,-9999.0,7.7,'1111122,1111122,1111122' 
NDBC,ioos:station:NOAA.NDBC:BURL1:1,2016-03-03T09:00:00Z,28.9060,-89.4290,30.5,8.2,-9999.0,8.2,'1111122,1111122,1111122' 
NDBC,ioos:station:NOAA.NDBC:BURL1:1,2016-03-03T10:00:00Z,28.9060,-89.4290,30.5,6.7,-9999.0,7.2,'1111122,1111122,1111122' 
NDBC,ioos:station:NOAA.NDBC:BURL1:1,2016-03-03T11:00:00Z,28.9060,-89.4290,30.5,5.1,-9999.0,5.7,'1111122,1111122,1111122' 
NDBC,ioos:station:NOAA.NDBC:BURL1:1,2016-03-03T12:00:00Z,28.9060,-89.4290,30.5,7.7,-9999.0,8.2,'1111122,1111122,1111122' 
NDBC,ioos:station:NOAA.NDBC:BURL1:1,2016-03-03T13:00:00Z,28.9060,-89.4290,30.5,6.2,-9999.0,6.2,'1111122,1111122,1111122' 
NDBC,ioos:station:NOAA.NDBC:BURL1:1,2016-03-03T14:00:00Z,28.9060,-89.4290,30.5,7.7,-9999.0,7.7,'1111122,1111122,1111122' 
NDBC,ioos:station:NOAA.NDBC:BURL1:1,2016-03-03T15:00:00Z,28.9060,-89.4290,30.5,6.7,-9999.0,6.7,'1111122,1111122,1111122' 
NDBC,ioos:station:NOAA.NDBC:BURL1:1,2016-03-03T16:00:00Z,28.9060,-89.4290,30.5,8.2,-9999.0,8.2,'1111122,1111122,1111122' 
NDBC,ioos:station:NOAA.NDBC:BURL1:1,2016-03-03T17:00:00Z,28.9060,-89.4290,30.5,2.1,-9999.0,2.1,'1111122,1111122,1111122' 
NDBC,ioos:station:NOAA.NDBC:BURL1:1,2016-03-03T18:00:00Z,28.9060,-89.4290,30.5,3.6,-9999.0,4.1,'1111122,1111122,1111122' 
NDBC,ioos:station:NOAA.NDBC:BURL1:1,2016-03-03T19:00:00Z,28.9060,-89.4290,30.5,6.2,-9999.0,6.7,'1111122,1111122,1111122' 
NDBC,ioos:station:NOAA.NDBC:BURL1:1,2016-03-03T20:00:00Z,28.9060,-89.4290,30.5,8.8,-9999.0,8.8,'1111122,1111122,1111122' 
NDBC,ioos:station:NOAA.NDBC:BURL1:1,2016-03-03T21:00:00Z,28.9060,-89.4290,30.5,9.8,-9999.0,9.8,'1111122,1111122,1111122' 
NDBC,ioos:station:NOAA.NDBC:BURL1:1,2016-03-03T22:00:00Z,28.9060,-89.4290,30.5,9.8,-9999.0,9.8,'1111122,1111122,1111122' 
NDBC,ioos:station:NOAA.NDBC:BURL1:1,2016-03-03T23:00:00Z,28.9060,-89.4290,30.5,10.3,-9999.0,10.3,'1111122,1111122,1111122' 
NDBC,ioos:station:NOAA.NDBC:BURL1:1,2016-03-04T00:00:00Z,28.9060,-89.4290,30.5,11.3,-9999.0,11.3,'1111122,1111122,1111122' 
NDBC,ioos:station:NOAA.NDBC:BURL1:1,2016-03-04T01:00:00Z,28.9060,-89.4290,30.5,11.8,-9999.0,12.4,'1111122,1111122,1111122' 
NDBC,ioos:station:NOAA.NDBC:BURL1:1,2016-03-04T02:00:00Z,28.9060,-89.4290,30.5,10.3,-9999.0,10.3,'1111122,1111122,1111122' 
NDBC,ioos:station:NOAA.NDBC:BURL1:1,2016-03-04T03:00:00Z,28.9060,-89.4290,30.5,9.8,-9999.0,10.3,'1111122,1111122,1111122' 
NDBC,ioos:station:NOAA.NDBC:BURL1:1,2016-03-04T04:00:00Z,28.9060,-89.4290,30.5,8.2,-9999.0,8.2,'1111122,1111122,1111122' 
NDBC,ioos:station:NOAA.NDBC:BURL1:1,2016-03-04T05:00:00Z,28.9060,-89.4290,30.5,10.8,-9999.0,12.4,'1111122,1111122,1111122' 
NDBC,ioos:station:NOAA.NDBC:BURL1:1,2016-03-04T06:00:00Z,28.9060,-89.4290,30.5,9.8,-9999.0,9.8,'1111122,1111122,1111122' 
NDBC,ioos:station:NOAA.NDBC:BURL1:1,2016-03-04T07:00:00Z,28.9060,-89.4290,30.5,6.7,-9999.0,7.2,'1111122,1111122,1111122' 
NDBC,ioos:station:NOAA.NDBC:BURL1:1,2016-03-04T08:00:00Z,28.9060,-89.4290,30.5,6.2,-9999.0,6.7,'1111122,1111122,1111122' 
NDBC,ioos:station:NOAA.NDBC:BURL1:1,2016-03-04T09:00:00Z,28.9060,-89.4290,30.5,9.3,-9999.0,10.3,'1111122,1111122,1111122' 
NDBC,ioos:station:NOAA.NDBC:BURL1:1,2016-03-04T10:00:00Z,28.9060,-89.4290,30.5,7.7,-9999.0,8.2,'1111122,1111122,1111122' 
NDBC,ioos:station:NOAA.NDBC:BURL1:1,2016-03-04T11:00:00Z,28.9060,-89.4290,30.5,7.7,-9999.0,8.2,'1111122,1111122,1111122' 
NDBC,ioos:station:NOAA.NDBC:BURL1:1,2016-03-04T12:00:00Z,28.9060,-89.4290,30.5,7.2,-9999.0,8.2,'1111122,1111122,1111122' 
NDBC,ioos:station:NOAA.NDBC:BURL1:1,2016-03-04T13:00:00Z,28.9060,-89.4290,30.5,7.7,-9999.0,8.2,'1111122,1111122,1111122' 
NDBC,ioos:station:NOAA.NDBC:BURL1:1,2016-03-04T14:00:00Z,28.9060,-89.4290,30.5,6.7,-9999.0,7.2,'1111122,1111122,1111122' 
NDBC,ioos:station:NOAA.NDBC:BURL1:1,2016-03-04T15:00:00Z,28.9060,-89.4290,30.5,8.8,-9999.0,9.3,'1111122,1111122,1111122' 
NDBC,ioos:station:NOAA.NDBC:BURL1:1,2016-03-04T16:00:00Z,28.9060,-89.4290,30.5,8.2,-9999.0,8.8,'1111122,1111122,1111122' 
NDBC,ioos:station:NOAA.NDBC:BURL1:1,2016-03-04T17:00:00Z,28.9060,-89.4290,30.5,6.7,-9999.0,7.7,'1111122,1111122,1111122' 
NDBC,ioos:station:NOAA.NDBC:BURL1:1,2016-03-04T18:00:00Z,28.9060,-89.4290,30.5,4.6,-9999.0,5.1,'1111122,1111122,1111122' 
NDBC,ioos:station:NOAA.NDBC:BURL1:1,2016-03-04T19:00:00Z,28.9060,-89.4290,30.5,3.6,-9999.0,4.1,'1111122,1111122,1111122' 
NDBC,ioos:station:NOAA.NDBC:BURL1:1,2016-03-04T20:00:00Z,28.9060,-89.4290,30.5,6.7,-9999.0,7.2,'1111122,1111122,1111122' 
NDBC,ioos:station:NOAA.NDBC:BURL1:1,2016-03-04T21:00:00Z,28.9060,-89.4290,30.5,4.6,-9999.0,5.7,'1111122,1111122,1111122' 
NDBC,ioos:station:NOAA.NDBC:BURL1:1,2016-03-04T22:00:00Z,28.9060,-89.4290,30.5,3.6,-9999.0,4.1,'1111122,1111122,1111122' 
NDBC,ioos:station:NOAA.NDBC:BURL1:1,2016-03-04T23:00:00Z,28.9060,-89.4290,30.5,4.6,-9999.0,4.6,'1111122,1111122,1111122' 
NDBC,ioos:station:NOAA.NDBC:BURL1:1,2016-03-05T00:00:00Z,28.9060,-89.4290,30.5,3.6,-9999.0,3.6,'1111122,1111122,1111122' 
NDBC,ioos:station:NOAA.NDBC:BURL1:1,2016-03-05T01:00:00Z,28.9060,-89.4290,30.5,3.1,-9999.0,3.1,'1111122,1111122,1111122' 
NDBC,ioos:station:NOAA.NDBC:BURL1:1,2016-03-05T02:00:00Z,28.9060,-89.4290,30.5,3.1,-9999.0,3.1,'1111122,1111122,1111122' 
NDBC,ioos:station:NOAA.NDBC:BURL1:1,2016-03-05T03:00:00Z,28.9060,-89.4290,30.5,3.1,-9999.0,3.1,'1111122,1111122,1111122' 
NDBC,ioos:station:NOAA.NDBC:BURL1:1,2016-03-05T04:00:00Z,28.9060,-89.4290,30.5,3.1,-9999.0,3.1,'1111122,1111122,1111122' 
NDBC,ioos:station:NOAA.NDBC:BURL1:1,2016-03-05T05:00:00Z,28.9060,-89.4290,30.5,2.6,-9999.0,2.6,'1111122,1111122,1111122' 
NDBC,ioos:station:NOAA.NDBC:BURL1:1,2016-03-05T06:00:00Z,28.9060,-89.4290,30.5,3.1,-9999.0,3.1,'1111122,1111122,1111122' 
NDBC,ioos:station:NOAA.NDBC:BURL1:1,2016-03-05T07:00:00Z,28.9060,-89.4290,30.5,3.6,-9999.0,3.6,'1111122,1111122,1111122' 
NDBC,ioos:station:NOAA.NDBC:BURL1:1,2016-03-05T08:00:00Z,28.9060,-89.4290,30.5,3.6,-9999.0,3.6,'1111122,1111122,1111122' 
NDBC,ioos:station:NOAA.NDBC:BURL1:1,2016-03-05T09:00:00Z,28.9060,-89.4290,30.5,3.6,-9999.0,3.6,'1111122,1111122,1111122' 
NDBC,ioos:station:NOAA.NDBC:BURL1:1,2016-03-05T10:00:00Z,28.9060,-89.4290,30.5,3.6,-9999.0,3.6,'1111122,1111122,1111122' 
NDBC,ioos:station:NOAA.NDBC:BURL1:1,2016-03-05T11:00:00Z,28.9060,-89.4290,30.5,4.1,-9999.0,4.6,'1111122,1111122,1111122' 
NDBC,ioos:station:NOAA.NDBC:BURL1:1,2016-03-05T12:00:00Z,28.9060,-89.4290,30.5,4.6,-9999.0,4.6,'1111122,1111122,1111122' 
NDBC,ioos:station:NOAA.NDBC:BURL1:1,2016-03-05T13:00:00Z,28.9060,-89.4290,30.5,5.7,-9999.0,5.7,'1111122,1111122,1111122' 
NDBC,ioos:station:NOAA.NDBC:BURL1:1,2016-03-05T14:00:00Z,28.9060,-89.4290,30.5,6.2,-9999.0,6.2,'1111122,1111122,1111122' 
NDBC,ioos:station:NOAA.NDBC:BURL1:1,2016-03-05T15:00:00Z,28.9060,-89.4290,30.5,5.7,-9999.0,5.7,'1111122,1111122,1111122' 
NDBC,ioos:station:NOAA.NDBC:BURL1:1,2016-03-05T16:00:00Z,28.9060,-89.4290,30.5,5.1,-9999.0,5.7,'1111122,1111122,1111122' 
NDBC,ioos:station:NOAA.NDBC:BURL1:1,2016-03-05T17:00:00Z,28.9060,-89.4290,30.5,4.1,-9999.0,4.6,'1111122,1111122,1111122' 
NDBC,ioos:station:NOAA.NDBC:BURL1:1,2016-03-05T18:00:00Z,28.9060,-89.4290,30.5,2.1,-9999.0,2.1,'1111122,1111122,1111122' 
NDBC,ioos:station:NOAA.NDBC:BURL1:1,2016-03-05T19:00:00Z,28.9060,-89.4290,30.5,0.5,-9999.0,1.0,'1111122,1111122,1111122' 
NDBC,ioos:station:NOAA.NDBC:BURL1:1,2016-03-05T20:00:00Z,28.9060,-89.4290,30.5,2.1,-9999.0,2.1,'1111122,1111122,1111122' 
NDBC,ioos:station:NOAA.NDBC:BURL1:1,2016-03-05T21:00:00Z,28.9060,-89.4290,30.5,1.5,-9999.0,1.5,'1111122,1111122,1111122' 
NDBC,ioos:station:NOAA.NDBC:BURL1:1,2016-03-05T22:00:00Z,28.9060,-89.4290,30.5,1.0,-9999.0,1.0,'1111122,1111122,1111122' 
NDBC,ioos:station:NOAA.NDBC:BURL1:1,2016-03-05T23:00:00Z,28.9060,-89.4290,30.5,1.0,-9999.0,1.0,'1111122,1111122,1111122' 
NDBC,ioos:station:NOAA.NDBC:BURL1:1,2016-03-06T00:00:00Z,28.9060,-89.4290,30.5,2.6,-9999.0,2.6,'1111122,1111122,1111122' 
NDBC,ioos:station:NOAA.NDBC:BURL1:1,2016-03-06T01:00:00Z,28.9060,-89.4290,30.5,3.1,-9999.0,3.1,'1111122,1111122,1111122' 
NDBC,ioos:station:NOAA.NDBC:BURL1:1,2016-03-06T02:00:00Z,28.9060,-89.4290,30.5,3.1,-9999.0,3.6,'1111122,1111122,1111122' 
NDBC,ioos:station:NOAA.NDBC:BURL1:1,2016-03-06T03:00:00Z,28.9060,-89.4290,30.5,3.6,-9999.0,3.6,'1111122,1111122,1111122' 
NDBC,ioos:station:NOAA.NDBC:BURL1:1,2016-03-06T04:00:00Z,28.9060,-89.4290,30.5,2.6,-9999.0,3.1,'1111122,1111122,1111122' 
NDBC,ioos:station:NOAA.NDBC:BURL1:1,2016-03-06T05:00:00Z,28.9060,-89.4290,30.5,2.6,-9999.0,2.6,'1111122,1111122,1111122' 
NDBC,ioos:station:NOAA.NDBC:BURL1:1,2016-03-06T06:00:00Z,28.9060,-89.4290,30.5,2.6,-9999.0,3.1,'1111122,1111122,1111122' 
NDBC,ioos:station:NOAA.NDBC:BURL1:1,2016-03-06T07:00:00Z,28.9060,-89.4290,30.5,2.1,-9999.0,2.1,'1111122,1111122,1111122' 
NDBC,ioos:station:NOAA.NDBC:BURL1:1,2016-03-06T08:00:00Z,28.9060,-89.4290,30.5,1.5,-9999.0,1.5,'1111122,1111122,1111122' 
NDBC,ioos:station:NOAA.NDBC:BURL1:1,2016-03-06T09:00:00Z,28.9060,-89.4290,30.5,0.5,-9999.0,1.0,'1111122,1111122,1111122' 
NDBC,ioos:station:NOAA.NDBC:BURL1:1,2016-03-06T11:00:00Z,28.9060,-89.4290,30.5,1.0,-9999.0,1.0,'1111122,1111122,1111122' 
NDBC,ioos:station:NOAA.NDBC:BURL1:1,2016-03-06T12:00:00Z,28.9060,-89.4290,30.5,1.5,-9999.0,1.5,'1111122,1111122,1111122' 
NDBC,ioos:station:NOAA.NDBC:BURL1:1,2016-03-06T14:00:00Z,28.9060,-89.4290,30.5,0.5,-9999.0,1.0,'1111122,1111122,1111122' 
NDBC,ioos:station:NOAA.NDBC:BURL1:1,2016-03-06T15:00:00Z,28.9060,-89.4290,30.5,0.5,-9999.0,1.0,'1111122,1111122,1111122' 
NDBC,ioos:station:NOAA.NDBC:BURL1:1,2016-03-06T16:00:00Z,28.9060,-89.4290,30.5,1.0,-9999.0,1.0,'1111122,1111122,1111122' 
NDBC,ioos:station:NOAA.NDBC:BURL1:1,2016-03-06T17:00:00Z,28.9060,-89.4290,30.5,1.0,-9999.0,1.5,'1111122,1111122,1111122' 
NDBC,ioos:station:NOAA.NDBC:BURL1:1,2016-03-06T18:00:00Z,28.9060,-89.4290,30.5,1.0,-9999.0,1.0,'1111122,1111122,1111122' 
NDBC,ioos:station:NOAA.NDBC:BURL1:1,2016-03-06T19:00:00Z,28.9060,-89.4290,30.5,1.5,-9999.0,1.5,'1111122,1111122,1111122' 
NDBC,ioos:station:NOAA.NDBC:BURL1:1,2016-03-06T20:00:00Z,28.9060,-89.4290,30.5,1.5,-9999.0,2.1,'1111122,1111122,1111122' 
NDBC,ioos:station:NOAA.NDBC:BURL1:1,2016-03-06T21:00:00Z,28.9060,-89.4290,30.5,4.6,-9999.0,4.6,'1111122,1111122,1111122' 
NDBC,ioos:station:NOAA.NDBC:BURL1:1,2016-03-06T22:00:00Z,28.9060,-89.4290,30.5,4.6,-9999.0,4.6,'1111122,1111122,1111122' 
NDBC,ioos:station:NOAA.NDBC:BURL1:1,2016-03-06T23:00:00Z,28.9060,-89.4290,30.5,4.1,-9999.0,4.6,'1111122,1111122,1111122' 
NDBC,ioos:station:NOAA.NDBC:BURL1:1,2016-03-07T00:00:00Z,28.9060,-89.4290,30.5,5.1,-9999.0,5.7,'1111122,1111122,1111122' 
NDBC,ioos:station:NOAA.NDBC:BURL1:1,2016-03-07T01:00:00Z,28.9060,-89.4290,30.5,5.1,-9999.0,5.7,'1111122,1111122,1111122' 
NDBC,ioos:station:NOAA.NDBC:BURL1:1,2016-03-07T02:00:00Z,28.9060,-89.4290,30.5,5.7,-9999.0,6.2,'1111122,1111122,1111122' 
NDBC,ioos:station:NOAA.NDBC:BURL1:1,2016-03-07T03:00:00Z,28.9060,-89.4290,30.5,6.2,-9999.0,6.7,'1111122,1111122,1111122' 
NDBC,ioos:station:NOAA.NDBC:BURL1:1,2016-03-07T04:00:00Z,28.9060,-89.4290,30.5,6.7,-9999.0,7.2,'1111122,1111122,1111122' 
NDBC,ioos:station:NOAA.NDBC:BURL1:1,2016-03-07T05:00:00Z,28.9060,-89.4290,30.5,7.2,-9999.0,8.2,'1111122,1111122,1111122' 
NDBC,ioos:station:NOAA.NDBC:BURL1:1,2016-03-07T06:00:00Z,28.9060,-89.4290,30.5,8.2,-9999.0,9.3,'1111122,1111122,1111122' 
NDBC,ioos:station:NOAA.NDBC:BURL1:1,2016-03-07T07:00:00Z,28.9060,-89.4290,30.5,8.2,-9999.0,8.8,'1111122,1111122,1111122' 
NDBC,ioos:station:NOAA.NDBC:BURL1:1,2016-03-07T08:00:00Z,28.9060,-89.4290,30.5,8.2,-9999.0,8.8,'1111122,1111122,1111122' 
NDBC,ioos:station:NOAA.NDBC:BURL1:1,2016-03-07T09:00:00Z,28.9060,-89.4290,30.5,8.8,-9999.0,9.3,'1111122,1111122,1111122' 
NDBC,ioos:station:NOAA.NDBC:BURL1:1,2016-03-07T10:00:00Z,28.9060,-89.4290,30.5,8.2,-9999.0,8.8,'1111122,1111122,1111122' 
NDBC,ioos:station:NOAA.NDBC:BURL1:1,2016-03-07T11:00:00Z,28.9060,-89.4290,30.5,9.3,-9999.0,9.8,'1111122,1111122,1111122' 
NDBC,ioos:station:NOAA.NDBC:BURL1:1,2016-03-07T13:00:00Z,28.9060,-89.4290,30.5,7.7,-9999.0,8.2,'1111122,1111122,1111122' 
NDBC,ioos:station:NOAA.NDBC:BURL1:1,2016-03-07T14:00:00Z,28.9060,-89.4290,30.5,6.7,-9999.0,7.2,'1111122,1111122,1111122' 
NDBC,ioos:station:NOAA.NDBC:BURL1:1,2016-03-07T15:00:00Z,28.9060,-89.4290,30.5,7.2,-9999.0,7.7,'1111122,1111122,1111122' 
NDBC,ioos:station:NOAA.NDBC:BURL1:1,2016-03-07T16:00:00Z,28.9060,-89.4290,30.5,7.7,-9999.0,8.2,'1111122,1111122,1111122' 
NDBC,ioos:station:NOAA.NDBC:BURL1:1,2016-03-07T17:00:00Z,28.9060,-89.4290,30.5,7.2,-9999.0,7.2,'1111122,1111122,1111122' 
NDBC,ioos:station:NOAA.NDBC:BURL1:1,2016-03-07T19:00:00Z,28.9060,-89.4290,30.5,3.1,-9999.0,3.1,'1111122,1111122,1111122' 
NDBC,ioos:station:NOAA.NDBC:BURL1:1,2016-03-07T20:00:00Z,28.9060,-89.4290,30.5,3.6,-9999.0,3.6,'1111122,1111122,1111122' 
NDBC,ioos:station:NOAA.NDBC:BURL1:1,2016-03-07T21:00:00Z,28.9060,-89.4290,30.5,3.6,-9999.0,4.1,'1111122,1111122,1111122' 
NDBC,ioos:station:NOAA.NDBC:BURL1:1,2016-03-08T11:00:00Z,28.9060,-89.4290,30.5,11.3,-9999.0,11.8,'1111122,1111122,1111122' 
NDBC,ioos:station:NOAA.NDBC:BURL1:1,2016-03-08T12:00:00Z,28.9060,-89.4290,30.5,10.3,-9999.0,10.8,'1111122,1111122,1111122' 
NDBC,ioos:station:NOAA.NDBC:BURL1:1,2016-03-08T13:00:00Z,28.9060,-89.4290,30.5,10.3,-9999.0,10.8,'1111122,1111122,1111122' 
NDBC,ioos:station:NOAA.NDBC:BURL1:1,2016-03-08T14:00:00Z,28.9060,-89.4290,30.5,9.8,-9999.0,10.3,'1111122,1111122,1111122' 
NDBC,ioos:station:NOAA.NDBC:BURL1:1,2016-03-08T15:00:00Z,28.9060,-89.4290,30.5,9.3,-9999.0,9.3,'1111122,1111122,1111122' 
NDBC,ioos:station:NOAA.NDBC:BURL1:1,2016-03-08T16:00:00Z,28.9060,-89.4290,30.5,8.8,-9999.0,9.3,'1111122,1111122,1111122' 
NDBC,ioos:station:NOAA.NDBC:BURL1:1,2016-03-08T17:00:00Z,28.9060,-89.4290,30.5,9.3,-9999.0,9.8,'1111122,1111122,1111122' 
NDBC,ioos:station:NOAA.NDBC:BURL1:1,2016-03-08T18:00:00Z,28.9060,-89.4290,30.5,9.3,-9999.0,9.8,'1111122,1111122,1111122' 
NDBC,ioos:station:NOAA.NDBC:BURL1:1,2016-03-08T19:00:00Z,28.9060,-89.4290,30.5,10.3,-9999.0,10.8,'1111122,1111122,1111122' 
NDBC,ioos:station:NOAA.NDBC:BURL1:1,2016-03-08T20:00:00Z,28.9060,-89.4290,30.5,11.3,-9999.0,11.8,'1111122,1111122,1111122' 
NDBC,ioos:station:NOAA.NDBC:BURL1:1,2016-03-08T21:00:00Z,28.9060,-89.4290,30.5,11.3,-9999.0,11.8,'1111122,1111122,1111122' 
NDBC,ioos:station:NOAA.NDBC:BURL1:1,2016-03-08T22:00:00Z,28.9060,-89.4290,30.5,10.8,-9999.0,11.3,'1111122,1111122,1111122' 
NDBC,ioos:station:NOAA.NDBC:BURL1:1,2016-03-08T23:00:00Z,28.9060,-89.4290,30.5,9.8,-9999.0,10.3,'1111122,1111122,1111122' 
NDBC,ioos:station:NOAA.NDBC:BURL1:1,2016-03-09T00:00:00Z,28.9060,-89.4290,30.5,10.8,-9999.0,11.3,'1111122,1111122,1111122' 
NDBC,ioos:station:NOAA.NDBC:BURL1:1,2016-03-09T01:00:00Z,28.9060,-89.4290,30.5,12.4,-9999.0,13.4,'1111122,1111122,1111122' 
NDBC,ioos:station:NOAA.NDBC:BURL1:1,2016-03-09T02:00:00Z,28.9060,-89.4290,30.5,12.9,-9999.0,13.9,'1111122,1111122,1111122' 
NDBC,ioos:station:NOAA.NDBC:BURL1:1,2016-03-09T03:00:00Z,28.9060,-89.4290,30.5,12.9,-9999.0,13.9,'1111122,1111122,1111122' 
NDBC,ioos:station:NOAA.NDBC:BURL1:1,2016-03-09T05:00:00Z,28.9060,-89.4290,30.5,11.8,-9999.0,12.4,'1111122,1111122,1111122' 
NDBC,ioos:station:NOAA.NDBC:BURL1:1,2016-03-09T06:00:00Z,28.9060,-89.4290,30.5,11.3,-9999.0,11.8,'1111122,1111122,1111122' 
NDBC,ioos:station:NOAA.NDBC:BURL1:1,2016-03-09T07:00:00Z,28.9060,-89.4290,30.5,9.8,-9999.0,10.3,'1111122,1111122,1111122' 
NDBC,ioos:station:NOAA.NDBC:BURL1:1,2016-03-09T08:00:00Z,28.9060,-89.4290,30.5,9.8,-9999.0,10.3,'1111122,1111122,1111122' 
NDBC,ioos:station:NOAA.NDBC:BURL1:1,2016-03-09T09:00:00Z,28.9060,-89.4290,30.5,10.3,-9999.0,10.8,'1111122,1111122,1111122' 
NDBC,ioos:station:NOAA.NDBC:BURL1:1,2016-03-09T10:00:00Z,28.9060,-89.4290,30.5,10.8,-9999.0,11.3,'1111122,1111122,1111122' 
NDBC,ioos:station:NOAA.NDBC:BURL1:1,2016-03-09T11:00:00Z,28.9060,-89.4290,30.5,10.3,-9999.0,11.3,'1111122,1111122,1111122' 
NDBC,ioos:station:NOAA.NDBC:BURL1:1,2016-03-09T12:00:00Z,28.9060,-89.4290,30.5,10.3,-9999.0,11.3,'1111122,1111122,1111122' 
NDBC,ioos:station:NOAA.NDBC:BURL1:1,2016-03-09T13:00:00Z,28.9060,-89.4290,30.5,12.4,-9999.0,12.9,'1111122,1111122,1111122' 
NDBC,ioos:station:NOAA.NDBC:BURL1:1,2016-03-09T14:00:00Z,28.9060,-89.4290,30.5,11.3,-9999.0,12.4,'1111122,1111122,1111122' 
NDBC,ioos:station:NOAA.NDBC:BURL1:1,2016-03-09T15:00:00Z,28.9060,-89.4290,30.5,12.9,-9999.0,14.4,'1111122,1111122,1111122' 
NDBC,ioos:station:NOAA.NDBC:BURL1:1,2016-03-09T16:00:00Z,28.9060,-89.4290,30.5,12.9,-9999.0,13.9,'1111122,1111122,1111122' 
NDBC,ioos:station:NOAA.NDBC:BURL1:1,2016-03-09T17:00:00Z,28.9060,-89.4290,30.5,12.9,-9999.0,13.4,'1111122,1111122,1111122' 
NDBC,ioos:station:NOAA.NDBC:BURL1:1,2016-03-09T18:00:00Z,28.9060,-89.4290,30.5,13.4,-9999.0,14.4,'1111122,1111122,1111122' 
NDBC,ioos:station:NOAA.NDBC:BURL1:1,2016-03-09T19:00:00Z,28.9060,-89.4290,30.5,11.8,-9999.0,12.4,'1111122,1111122,1111122' 
NDBC,ioos:station:NOAA.NDBC:BURL1:1,2016-03-09T20:00:00Z,28.9060,-89.4290,30.5,11.8,-9999.0,12.9,'1111122,1111122,1111122' 
NDBC,ioos:station:NOAA.NDBC:BURL1:1,2016-03-09T21:00:00Z,28.9060,-89.4290,30.5,11.3,-9999.0,12.4,'1111122,1111122,1111122' 
NDBC,ioos:station:NOAA.NDBC:BURL1:1,2016-03-09T22:00:00Z,28.9060,-89.4290,30.5,9.8,-9999.0,10.8,'1111122,1111122,1111122' 
NDBC,ioos:station:NOAA.NDBC:BURL1:1,2016-03-09T23:00:00Z,28.9060,-89.4290,30.5,10.3,-9999.0,10.8,'1111122,1111122,1111122' 
NDBC,ioos:station:NOAA.NDBC:BURL1:1,2016-03-10T00:00:00Z,28.9060,-89.4290,30.5,12.9,-9999.0,13.9,'1111122,1111122,1111122' 
NDBC,ioos:station:NOAA.NDBC:BURL1:1,2016-03-10T01:00:00Z,28.9060,-89.4290,30.5,11.8,-9999.0,12.9,'1111122,1111122,1111122' 
NDBC,ioos:station:NOAA.NDBC:BURL1:1,2016-03-10T02:00:00Z,28.9060,-89.4290,30.5,13.4,-9999.0,14.4,'1111122,1111122,1111122' 
NDBC,ioos:station:NOAA.NDBC:BURL1:1,2016-03-10T03:00:00Z,28.9060,-89.4290,30.5,13.9,-9999.0,14.9,'1111122,1111122,1111122' 
NDBC,ioos:station:NOAA.NDBC:BURL1:1,2016-03-10T04:00:00Z,28.9060,-89.4290,30.5,13.9,-9999.0,14.9,'1111122,1111122,1111122' 
NDBC,ioos:station:NOAA.NDBC:BURL1:1,2016-03-10T05:00:00Z,28.9060,-89.4290,30.5,13.4,-9999.0,14.9,'1111122,1111122,1111122' 
NDBC,ioos:station:NOAA.NDBC:BURL1:1,2016-03-10T06:00:00Z,28.9060,-89.4290,30.5,13.9,-9999.0,16.0,'1111122,1111122,1111122' 
NDBC,ioos:station:NOAA.NDBC:BURL1:1,2016-03-10T07:00:00Z,28.9060,-89.4290,30.5,13.4,-9999.0,14.4,'1111122,1111122,1111122' 
NDBC,ioos:station:NOAA.NDBC:BURL1:1,2016-03-10T08:00:00Z,28.9060,-89.4290,30.5,12.9,-9999.0,13.9,'1111122,1111122,1111122' 
NDBC,ioos:station:NOAA.NDBC:BURL1:1,2016-03-10T09:00:00Z,28.9060,-89.4290,30.5,13.4,-9999.0,14.4,'1111122,1111122,1111122' 
NDBC,ioos:station:NOAA.NDBC:BURL1:1,2016-03-10T10:00:00Z,28.9060,-89.4290,30.5,12.9,-9999.0,14.4,'1111122,1111122,1111122' 
NDBC,ioos:station:NOAA.NDBC:BURL1:1,2016-03-10T12:00:00Z,28.9060,-89.4290,30.5,13.4,-9999.0,14.9,'1111122,1111122,1111122' 
NDBC,ioos:station:NOAA.NDBC:BURL1:1,2016-03-10T13:00:00Z,28.9060,-89.4290,30.5,13.9,-9999.0,14.9,'1111122,1111122,1111122' 
NDBC,ioos:station:NOAA.NDBC:BURL1:1,2016-03-10T14:00:00Z,28.9060,-89.4290,30.5,13.4,-9999.0,14.9,'1111122,1111122,1111122' 
NDBC,ioos:station:NOAA.NDBC:BURL1:1,2016-03-10T15:00:00Z,28.9060,-89.4290,30.5,12.9,-9999.0,13.9,'1111122,1111122,1111122' 
NDBC,ioos:station:NOAA.NDBC:BURL1:1,2016-03-10T16:00:00Z,28.9060,-89.4290,30.5,12.4,-9999.0,13.4,'1111122,1111122,1111122' 
NDBC,ioos:station:NOAA.NDBC:BURL1:1,2016-03-10T17:00:00Z,28.9060,-89.4290,30.5,11.8,-9999.0,13.4,'1111122,1111122,1111122' 
NDBC,ioos:station:NOAA.NDBC:BURL1:1,2016-03-10T18:00:00Z,28.9060,-89.4290,30.5,10.8,-9999.0,11.3,'1111122,1111122,1111122' 
NDBC,ioos:station:NOAA.NDBC:BURL1:1,2016-03-10T19:00:00Z,28.9060,-89.4290,30.5,11.8,-9999.0,13.4,'1111122,1111122,1111122' 
NDBC,ioos:station:NOAA.NDBC:BURL1:1,2016-03-10T20:00:00Z,28.9060,-89.4290,30.5,11.8,-9999.0,12.9,'1111122,1111122,1111122' 
NDBC,ioos:station:NOAA.NDBC:BURL1:1,2016-03-10T21:00:00Z,28.9060,-89.4290,30.5,10.8,-9999.0,11.3,'1111122,1111122,1111122' 
NDBC,ioos:station:NOAA.NDBC:BURL1:1,2016-03-10T22:00:00Z,28.9060,-89.4290,30.5,10.3,-9999.0,10.8,'1111122,1111122,1111122' 
NDBC,ioos:station:NOAA.NDBC:BURL1:1,2016-03-10T23:00:00Z,28.9060,-89.4290,30.5,10.3,-9999.0,10.8,'1111122,1111122,1111122' 
NDBC,ioos:station:NOAA.NDBC:BURL1:1,2016-03-11T00:00:00Z,28.9060,-89.4290,30.5,10.8,-9999.0,11.8,'1111122,1111122,1111122' 
NDBC,ioos:station:NOAA.NDBC:BURL1:1,2016-03-11T01:00:00Z,28.9060,-89.4290,30.5,11.3,-9999.0,12.4,'1111122,1111122,1111122' 
NDBC,ioos:station:NOAA.NDBC:BURL1:1,2016-03-11T02:00:00Z,28.9060,-89.4290,30.5,11.8,-9999.0,12.4,'1111122,1111122,1111122' 
NDBC,ioos:station:NOAA.NDBC:BURL1:1,2016-03-11T03:00:00Z,28.9060,-89.4290,30.5,11.3,-9999.0,12.4,'1111122,1111122,1111122' 
NDBC,ioos:station:NOAA.NDBC:BURL1:1,2016-03-11T04:00:00Z,28.9060,-89.4290,30.5,10.8,-9999.0,11.3,'1111122,1111122,1111122' 
NDBC,ioos:station:NOAA.NDBC:BURL1:1,2016-03-11T05:00:00Z,28.9060,-89.4290,30.5,11.3,-9999.0,12.4,'1111122,1111122,1111122' 
NDBC,ioos:station:NOAA.NDBC:BURL1:1,2016-03-11T06:00:00Z,28.9060,-89.4290,30.5,11.8,-9999.0,12.9,'1111122,1111122,1111122' 
NDBC,ioos:station:NOAA.NDBC:BURL1:1,2016-03-11T07:00:00Z,28.9060,-89.4290,30.5,11.8,-9999.0,12.9,'1111122,1111122,1111122' 
NDBC,ioos:station:NOAA.NDBC:BURL1:1,2016-03-11T08:00:00Z,28.9060,-89.4290,30.5,11.8,-9999.0,12.9,'1111122,1111122,1111122' 
NDBC,ioos:station:NOAA.NDBC:BURL1:1,2016-03-11T09:00:00Z,28.9060,-89.4290,30.5,11.8,-9999.0,12.9,'1111122,1111122,1111122' 
NDBC,ioos:station:NOAA.NDBC:BURL1:1,2016-03-11T10:00:00Z,28.9060,-89.4290,30.5,12.9,-9999.0,13.4,'1111122,1111122,1111122' 
NDBC,ioos:station:NOAA.NDBC:BURL1:1,2016-03-11T11:00:00Z,28.9060,-89.4290,30.5,16.5,-9999.0,20.6,'1111122,1111122,1111122' 
NDBC,ioos:station:NOAA.NDBC:BURL1:1,2016-03-11T12:00:00Z,28.9060,-89.4290,30.5,1.5,-9999.0,1.5,'1111122,1111122,1111122' 
NDBC,ioos:station:NOAA.NDBC:BURL1:1,2016-03-11T13:00:00Z,28.9060,-89.4290,30.5,0.5,-9999.0,1.5,'1111122,1111122,1111122' 
NDBC,ioos:station:NOAA.NDBC:BURL1:1,2016-03-11T14:00:00Z,28.9060,-89.4290,30.5,6.2,-9999.0,6.2,'1111122,1111122,1111122' 
NDBC,ioos:station:NOAA.NDBC:BURL1:1,2016-03-11T15:00:00Z,28.9060,-89.4290,30.5,6.2,-9999.0,6.7,'1111122,1111122,1111122' 
NDBC,ioos:station:NOAA.NDBC:BURL1:1,2016-03-11T16:00:00Z,28.9060,-89.4290,30.5,5.7,-9999.0,6.2,'1111122,1111122,1111122' 
NDBC,ioos:station:NOAA.NDBC:BURL1:1,2016-03-11T17:00:00Z,28.9060,-89.4290,30.5,8.2,-9999.0,8.2,'1111122,1111122,1111122' 